Location: La Trinit�
(48.1620°N, 3.4512°W)
Time: 15:34:28
(UTC+00:00)

Cosmos 1862 - Pass Details

Date: 08 May 2021
Orbit: 538 x 555 km, 82.5° (Epoch: 24 June)

Event Time Altitude Azimuth Distance (km) Brightness Sun altitude
Rises 20:07:44 0° 346° (NNW) 2,720 7.7 -5.2°
Reaches altitude 10° 20:09:55 10° 343° (NNW) 1,825 6.8 -5.5°
Maximum altitude 20:13:51 56° 265° (W) 656 4.1 -6.0°
Drops below altitude 10° 20:17:46 10° 187° (S) 1,820 5.7 -6.6°
Sets 20:19:57 0° 183° (S) 2,711 6.5 -6.9°
